Weather History for Lewisburg, WV

Change the Weather History Date:

Sunday, December 9, 2012

  Actual Average Record
Temperature  
Mean Temperature 50 °F 33 °F  
Max Temperature 57 °F 43 °F 63 °F (2007)
Min Temperature 42 °F 23 °F 9 °F (2002)
Degree Days  
Heating Degree Days 16    
Month to date heating degree days  
Since 1 July heating degree days  
Cooling Degree Days 0    
Month to date cooling degree days  
Year to date cooling degree days  
Moisture  
Dew Point 45 °F    
Average Humidity 88    
Maximum Humidity 100    
Minimum Humidity 63    
Precipitation  
Precipitation 0.10 in 0.10 in 1.00 in (1978)
Month to date precipitation 0.95  
Year to date precipitation 37.77  
Snow  
Snow 0.00 in - - ()
Month to date snowfall  
Since 1 July snowfall  
Snow Depth -    
Sea Level Pressure  
Sea Level Pressure 30.03 in    
Wind  
Wind Speed 1 mph (ENE)    
Max Wind Speed 8 mph    
Max Gust Speed -    
Visibility 5 miles    
Events Fog , Rain    
T = Trace of Precipitation, MM = Missing Value Source: NWS Daily Summary

Daily Weather History Graph

Daily Weather History Graph

Search for Another Location

Airport:

Trip Planner

Search our weather history database for the weather conditions in past years. The results will help you decide how hot, cold, wet, or windy it might be!

Date:

Astronomy

Dec. 09, 2012 Rise Set
Actual Time 7:25 AM EST 5:02 PM EST
Civil Twilight 6:56 AM EST 5:31 PM EST
Nautical Twilight 6:23 AM EST 6:04 PM EST
Astronomical Twilight 5:51 AM EST 6:36 PM EST
Moon 3:00 AM EST (12/9) 2:05 PM EST (12/9)
Length of Visible Light 10h 35m
Length of Day
9h 36m
Waning Crescent, 19% of the Moon is Illuminated
Dec 9
Waning Crescent
Dec 13
New
Dec 20
First Quarter
Dec 28
Full
Jan 4
Last Quarter

Hourly Weather History & Observations

Time (EST) Temp. Windchill Dew Point Humidity Pressure Visibility Wind Dir Wind Speed Gust Speed Precip Events Conditions
12:15 AM 44.6 °F 43.1 °F 42.8 °F 93% 30.05 in 4.0 mi SSW 3.5 mph - N/A   Mostly Cloudy
12:35 AM 44.6 °F - 44.6 °F 100% 30.04 in 2.5 mi Calm Calm - N/A   Overcast
12:55 AM 44.6 °F - 44.6 °F 100% 30.04 in 4.0 mi Calm Calm - N/A   Mostly Cloudy
1:15 AM 44.6 °F - 42.8 °F 93% 30.04 in 1.0 mi Calm Calm - N/A   Overcast
1:35 AM 44.6 °F - 42.8 °F 93% 30.04 in 0.8 mi Calm Calm - N/A   Overcast
1:55 AM 44.6 °F - 42.8 °F 93% 30.05 in 2.5 mi Calm Calm - N/A   Overcast
2:15 AM 42.8 °F 41.1 °F 42.8 °F 100% 30.04 in 0.8 mi ENE 3.5 mph - N/A   Overcast
2:35 AM 44.6 °F - 42.8 °F 93% 30.05 in 2.0 mi Calm Calm - N/A   Overcast
2:55 AM 44.6 °F - 42.8 °F 93% 30.05 in 1.0 mi Calm Calm - N/A   Overcast
3:15 AM 44.6 °F - 42.8 °F 93% 30.05 in 1.5 mi Calm Calm - N/A   Overcast
3:35 AM 42.8 °F - 42.8 °F 100% 30.05 in 1.5 mi Calm Calm - N/A   Overcast
3:55 AM 44.6 °F 43.1 °F 42.8 °F 93% 30.05 in 0.5 mi North 3.5 mph - N/A Rain Rain
4:15 AM 44.6 °F 43.1 °F 42.8 °F 93% 30.06 in 0.8 mi NNE 3.5 mph - N/A Rain Light Rain
4:35 AM 44.6 °F - 42.8 °F 93% 30.06 in 0.8 mi Calm Calm - N/A   Overcast
4:55 AM 44.6 °F - 42.8 °F 93% 30.05 in 2.0 mi Calm Calm - N/A   Overcast
5:15 AM 44.6 °F - 42.8 °F 93% 30.05 in 2.0 mi Calm Calm - N/A   Overcast
5:35 AM 44.6 °F - 42.8 °F 93% 30.06 in 0.5 mi Calm Calm - N/A Fog Fog
5:55 AM 44.6 °F - 44.6 °F 100% 30.07 in 3.0 mi Calm Calm - 0.02 in Rain Heavy Rain
6:15 AM 44.6 °F - 42.8 °F 93% 30.07 in 1.2 mi Calm Calm - 0.02 in Rain Light Rain
6:55 AM 44.6 °F - 42.8 °F 93% 30.09 in 1.5 mi Calm Calm - 0.03 in Rain Light Rain
7:15 AM 44.6 °F - 42.8 °F 93% 30.10 in 2.0 mi Calm Calm - N/A   Light Drizzle
7:35 AM 44.6 °F - 42.8 °F 93% 30.10 in 2.0 mi Calm Calm - N/A Rain Light Rain
7:55 AM 44.6 °F - 42.8 °F 93% 30.10 in 0.8 mi Calm Calm - N/A   Overcast
8:15 AM 44.6 °F - 42.8 °F 93% 30.11 in 0.8 mi Calm Calm - N/A   Overcast
8:35 AM 44.6 °F - 44.6 °F 100% 30.11 in 2.5 mi Calm Calm - N/A   Overcast
8:55 AM 46.4 °F - 44.6 °F 93% 30.11 in 1.2 mi Calm Calm - N/A   Overcast
9:15 AM 46.4 °F - 44.6 °F 93% 30.10 in 2.5 mi Calm Calm - N/A   Overcast
9:35 AM 48.2 °F - 46.4 °F 93% 30.11 in 7.0 mi Calm Calm - N/A   Scattered Clouds
9:55 AM 50.0 °F - 46.4 °F 87% 30.10 in 10.0 mi Calm Calm - N/A   Scattered Clouds
10:15 AM 50.0 °F - 48.2 °F 94% 30.11 in 10.0 mi Calm Calm - N/A   Mostly Cloudy
10:35 AM 50.0 °F - 48.2 °F 94% 30.10 in 10.0 mi Calm Calm - N/A   Overcast
10:55 AM 51.8 °F - 48.2 °F 88% 30.10 in 10.0 mi Calm Calm - N/A   Overcast
11:15 AM 53.6 °F - 50.0 °F 88% 30.09 in 10.0 mi Calm Calm - N/A   Mostly Cloudy
11:35 AM 53.6 °F - 48.2 °F 82% 30.07 in 10.0 mi Calm Calm - N/A   Mostly Cloudy
11:55 AM 51.8 °F - 48.2 °F 88% 30.06 in 10.0 mi NNE 3.5 mph - N/A   Mostly Cloudy
12:15 PM 51.8 °F - 48.2 °F 88% 30.05 in 10.0 mi Calm Calm - N/A   Mostly Cloudy
12:35 PM 53.6 °F - 50.0 °F 88% 30.05 in 10.0 mi North 3.5 mph - N/A   Mostly Cloudy
12:55 PM 53.6 °F - 50.0 °F 88% 30.04 in 10.0 mi NNE 3.5 mph - N/A   Mostly Cloudy
1:15 PM 53.6 °F - 50.0 °F 88% 30.03 in 10.0 mi Calm Calm - N/A   Overcast
1:35 PM 55.4 °F - 50.0 °F 82% 30.02 in 10.0 mi NNE 4.6 mph - N/A   Scattered Clouds
1:55 PM 55.4 °F - 50.0 °F 82% 30.01 in 10.0 mi North 5.8 mph - N/A   Scattered Clouds
2:15 PM 53.6 °F - 50.0 °F 88% 30.00 in 10.0 mi NNE 4.6 mph - N/A   Mostly Cloudy
2:35 PM 53.6 °F - 50.0 °F 88% 30.00 in 10.0 mi NNE 6.9 mph - N/A   Overcast
2:55 PM 53.6 °F - 50.0 °F 88% 30.00 in 10.0 mi NNE 4.6 mph - N/A   Overcast
3:35 PM 57.2 °F - 44.6 °F 63% 30.00 in 10.0 mi SSE 8.1 mph - N/A   Scattered Clouds
3:55 PM 55.4 °F - 44.6 °F 67% 30.00 in 10.0 mi South 5.8 mph - N/A   Scattered Clouds
4:15 PM 55.4 °F - 44.6 °F 67% 30.00 in 10.0 mi SSE 5.8 mph - N/A   Mostly Cloudy
4:35 PM 55.4 °F - 44.6 °F 67% 29.99 in 10.0 mi SSE 4.6 mph - N/A   Mostly Cloudy
4:55 PM 53.6 °F - 44.6 °F 72% 29.99 in 10.0 mi SSE 4.6 mph - N/A   Scattered Clouds
5:15 PM 53.6 °F - 44.6 °F 72% 29.99 in 10.0 mi SE 4.6 mph - N/A   Scattered Clouds
5:35 PM 53.6 °F - 44.6 °F 72% 29.99 in 10.0 mi SSE 3.5 mph - N/A   Scattered Clouds
5:55 PM 53.6 °F - 44.6 °F 72% 30.00 in 10.0 mi SSE 3.5 mph - N/A   Mostly Cloudy
6:15 PM 53.6 °F - 44.6 °F 72% 29.99 in 10.0 mi South 4.6 mph - N/A   Mostly Cloudy
6:35 PM 53.6 °F - 44.6 °F 72% 30.00 in 10.0 mi SSW 5.8 mph - N/A Rain Light Rain
6:55 PM 51.8 °F - 46.4 °F 82% 30.02 in 10.0 mi West 3.5 mph - 0.01 in Rain Light Rain
7:15 PM 51.8 °F - 46.4 °F 82% 30.02 in 7.0 mi Calm Calm - 0.02 in Rain Light Rain
7:35 PM 50.0 °F - 46.4 °F 87% 30.02 in 5.0 mi Calm Calm - 0.03 in   Drizzle
7:55 PM 50.0 °F - 46.4 °F 87% 30.00 in 4.0 mi ESE 4.6 mph - 0.03 in   Light Drizzle
8:15 PM 50.0 °F - 48.2 °F 94% 30.00 in 7.0 mi Calm Calm - N/A   Overcast
8:35 PM 50.0 °F - 46.4 °F 87% 29.99 in 10.0 mi Calm Calm - N/A   Overcast
8:55 PM 50.0 °F - 46.4 °F 87% 29.98 in 3.0 mi Calm Calm - 0.01 in   Overcast
9:15 PM 50.0 °F - 46.4 °F 87% 29.98 in 4.0 mi Calm Calm - N/A   Overcast
9:35 PM 50.0 °F - 46.4 °F 87% 29.97 in 5.0 mi NNE 3.5 mph - N/A   Overcast
9:55 PM 48.2 °F - 46.4 °F 93% 29.96 in 2.5 mi Calm Calm - N/A   Scattered Clouds
10:15 PM 46.4 °F - 44.6 °F 93% 29.96 in 0.2 mi Calm Calm - N/A Fog Fog
10:35 PM 46.4 °F - 44.6 °F 93% 29.95 in 0.2 mi Calm Calm - N/A Fog Fog
10:55 PM 46.4 °F 45.2 °F 44.6 °F 93% 29.95 in 0.2 mi North 3.5 mph - N/A Fog Fog
11:15 PM 44.6 °F - 42.8 °F 93% 29.94 in 0.2 mi Calm Calm - N/A Fog Fog
11:35 PM 44.6 °F - 42.8 °F 93% 29.93 in 0.2 mi Calm Calm - N/A Fog Fog
11:55 PM 42.8 °F - 42.8 °F 100% 29.93 in 0.2 mi Calm Calm - N/A Fog Fog